{"data":{"norad_id":60312,"epoch":"2026-09-21T16:33:00.766080Z","epoch_age_seconds":82816,"freshness":"FRESH","line1":"1 60312U 24133M   26264.68959220 -.00001100  00000+0 -42247-5 0  9993","line2":"2 60312  53.1587 260.3360 0001019  94.2293 265.8841 15.69709679124519","mean_motion":15.69709679,"eccentricity":0.0001019,"inclination_deg":53.1587,"raan_deg":260.336,"arg_perigee_deg":94.2293,"mean_anomaly_deg":265.8841,"bstar":-4.2247e-6,"rev_number":12451,"period_min":91.736708976488,"perigee_km":359.0410805893,"apogee_km":360.41425740884,"semimajor_km":6737.8646689991,"source":"CELESTRAK","updated_at":"2026-09-22T09:00:49.198532Z"}}